Regional Weather Roundup
Issued by NWS Upton, NY

Current Version | Previous Version | Text Only | Print | Product List | Glossary Off
Versions: 1 2 3 4 5 6 7 8 9 10 11 12 13 14 15 16 17 18 19 20 21 22 23 24 25 26 27 28

000
ASUS41 KOKX 300004
RWROKX

REGIONAL WEATHER ROUNDUP
NATIONAL WEATHER SERVICE NEW YORK NY
800 PM EDT FRI JUL 29 2016

NOTE: "FAIR" INDICATES FEW OR NO CLOUDS BELOW 12,000 FEET WITH NO
SIGNIFICANT WEATHER AND/OR OBSTRUCTIONS TO VISIBILITY.

NYZ071-072-176-178-NJZ106-104-300100-
NEW YORK CITY METRO AREA

CITY           SKY/WX    TMP DP  RH WIND       PRES   REMARKS
Central Park   PTCLDY    79  68  69 VRB6      29.90R
LaGuardia APRT PTCLDY    81  68  64 S10       29.87R
Kennedy INTL   PTCLDY    76  70  82 S12       29.90R
Newark/Liberty PTCLDY    81  69  67 VRB3      29.87R
Bronx Bot Gard   N/A     77  66  69 S3        29.88S
Wall St Helipt CLEAR     81  70  69 S6        29.89R
Teterboro      LGT RAIN  81  69  67 SW5       29.87R
$$

NYZ177-179-078>081-300100-
LONG ISLAND NEW YORK

CITY           SKY/WX    TMP DP  RH WIND       PRES   REMARKS
Farmingdale    CLEAR     76  67  73 SW9       29.89R
MacArthur/ISP  PTCLDY    75  69  81 S7        29.88R
Shirley        CLEAR     74  69  85 S6        29.89R
Riverhead      NOT AVBL
Westhampton    CLEAR     73  68  84 SE3       29.90R
Southhampton     N/A     73  70  88 CALM      29.85R
Bridgehampton    N/A     73  70  88 S2        29.86S
East Hampton   FAIR      73  66  80 CALM      29.88R
Montauk          N/A     73  68  84 VRB3      29.89R
$$

NYZ052-065-067-300100-
HUDSON VALLEY

CITY           SKY/WX    TMP DP  RH WIND       PRES   REMARKS
White Plains   CLOUDY    76  70  82 CALM      29.89R
Newburgh       PTCLDY    77  72  83 N7        29.90R
Montgomery     CLOUDY    76  71  85 S5        29.89R
Poughkeepsie   PTCLDY    85  65  51 CALM      29.86R
Albany         PTCLDY    81  56  42 NE7       29.89R
$$

NJZ001-105-106-008-010-013-015-019>022-104-300100-
NEW JERSEY

CITY           SKY/WX    TMP DP  RH WIND       PRES   REMARKS
Newark/Liberty PTCLDY    81  69  67 VRB3      29.87R
Teterboro      LGT RAIN  81  69  67 SW5       29.87R
Caldwell       CLOUDY    77  68  73 CALM      29.88R
Morristown     CLOUDY    75  68  78 N6        29.89R
Somerville     CLOUDY    82  64  54 N10       29.88R
Linden         FAIR      82  68  62 CALM      29.89R
Sussex         PTCLDY    73  71  93 W3        29.91S
Abdover          N/A     71  69  93 CALM      29.91S
Trenton        CLEAR     81  69  67 S7        29.88R
Millville      CLEAR     78  71  79 S5        29.90R
Atlantic City  CLEAR     75  69  81 E7        29.90R
Wrightstown    CLEAR     79  71  78 SE5       29.86R
Toms River     CLEAR     77  72  84 SE3       29.91R
Belmar         CLEAR     76  69  79 SE5       29.91R
$$

PAZ047>061-062-071-300100-
EASTERN PENNSYLVANIA

CITY           SKY/WX    TMP DP  RH WIND       PRES   REMARKS
Philadelphia   PTCLDY    84  68  58 SE5       29.89R
Allentown      LGT RAIN  82  68  62 NW6       29.89R
Scranton       CLEAR     84  63  49 NE6       29.92R
$$

CTZ002-004>006-009-010-012-RIZ004-006-007-MAZ004-011-015-300100-
SOUTHERN NEW ENGLAND
 IN CT

CITY           SKY/WX    TMP DP  RH WIND       PRES   REMARKS
Bradley INTL   MOCLDY    79  65  62 N7        29.88R
Hartford       MOCLDY    85  68  56 CALM      29.86R
Danbury        CLOUDY    78  68  71 SE6       29.90R
Wtrbury/Oxford MOCLDY    73  68  83 S3        29.92S
Bridgeport     LGT RAIN  79  67  66 NW5       29.89R
Meriden        CLOUDY    80  67  64 S7        29.87R
New Haven      HVY RAIN  74  68  81 SE3       29.89R
Chester        MOCLDY    75  70  83 S3        29.90R
Groton         CLEAR     73  68  84 W5        29.87R
Wilimantic     PTCLDY    81  70  69 CALM      29.87R

 IN RI

CITY           SKY/WX    TMP DP  RH WIND       PRES   REMARKS
Providence     PTCLDY    78  66  66 NE7       29.87R
Block Island   PTCLDY    72  69  90 CALM      29.88R
Westerly       CLEAR     74  66  76 CALM      29.88R
 IN MA

CITY           SKY/WX    TMP DP  RH WIND       PRES   REMARKS
Boston         PTCLDY    75  67  76 NE12      29.88R
Worchester     LGT RAIN  76  66  71 N10G17    29.93R
Westfield      CLEAR     76  69  79 NW3       29.88R
Provincetown   CLOUDY    71  70  96 N7        29.88R FOG
Nantucket      CLEAR     67  63  87 NE5       29.86R
$$

ANZ330-335-338-340-345-350-353-355-300100-
COASTAL MARINE OBSERVATIONS


STATION/POSITION TIME  SKY/WX   TEMP    WIND        PRES    VSBY  WAVE
                                AIR SEA DIR/SP/G                  HT/PER
                 (UTC)          (F)     (DEG/KT/KT) (MB)    (MI)  (FT/S)
NY HARB ENTRANCE 2250            76 76  160/  6/  8 1011.3          2/ 5
20S FIRE ISLAND  2250            74 74  110/  2/  2 1011.0          3/ 5
GREAT SOUTH BAY  2300            75 82  200/  8/ 10   N/A
23 SSW MONTAUK P 2250            74 71   60/  6/  6 1011.4          3/ 5
15 E BARNEGAT LI 2300               78                N/A           4/ 6
HUDSON CANYON    2250            74 78              1010.2          6/ 6
KINGS POINT      2318               74                N/A
EXECUTION ROCKS  2300            80      30/  2/  2   N/A
CENTRAL LI SOUND 2300            77 76  210/  6/  6   N/A           1
EASTERN LI SOUND 2300            70 68  170/  6/  8   N/A
ROBBINS REEF     NOT AVBL
$$


>>>>>>>>>>>>>>>>>>>>>>>>>>>> KEY <<<<<<<<<<<<<<<<<<<<<<<<<<<
>                                                          <
>     SKY/WX - Sky Condition/Present Weather               <
>     TMP    - Temperature in Fahrenheit                   <
>     DP     - Dew Point in Fahrenheit                     <
>     RH     - Relative Humidity in Percent                <
>     WIND   - Direction (from) and Speed in MPH           <
>     PRES   - Mean Sea Level Pressure (inches of Hg)      <
>     WCI    - Wind Chill Index                            <
>     VSB    - VISIBILITY IN MILES                         <
>     HX     - HEAT INDEX                                  <
>     TC     - TEMPERATURE IN CELSIUS                      <
>     VRB    - VARIABLE WIND DIRECTION                     <
>                                                          <
>>>>>>>>>>>>>>>>>>>>>>>>>>>> KEY <<<<<<<<<<<<<<<<<<<<<<<<<<<




USA.gov is the U.S. government's official web portal to all federal, state and local government web resources and services.